Cherry Point, NC

11:47 AM EDT on April 27, 2017 (GMT -0400)
Cherry Point Marine Corps Air Station

Weather History for KNKT - May, 2013

Change the Weather History Date:

Saturday, May 4, 2013

  Actual Average Record
Temperature  
Mean Temperature 60 °F -  
Max Temperature 66 °F 75 °F 90 °F (2012)
Min Temperature 53 °F 54 °F 48 °F (2004)
Degree Days  
Heating Degree Days 6    
Growing Degree Days 10 (Base 50)    
Moisture  
Dew Point 53 °F    
Average Humidity 84    
Maximum Humidity 94    
Minimum Humidity 60    
Precipitation  
Precipitation 0.17 in - - ()
Sea Level Pressure  
Sea Level Pressure 30.09 in    
Wind  
Wind Speed 14 mph ()    
Max Wind Speed 21 mph    
Max Gust Speed 28 mph    
Visibility 4.8 miles    
Events Rain    
Averages and records for this station are not official NWS values.
T = Trace of Precipitation, MM = Missing Value Source: Averaged Metar Reports

Daily Weather History Graph

Daily Weather History Graph

Search for Another Location

Airport or City:

Trip Planner

Search our weather history database for the weather conditions in past years. The results will help you decide how hot, cold, wet, or windy it might be!

Date:

Astronomy

May. 04, 2013 Rise Set
Actual Time 6:13 AM EDT 7:55 PM EDT
Civil Twilight 5:46 AM EDT 8:22 PM EDT
Nautical Twilight 5:13 AM EDT 8:55 PM EDT
Astronomical Twilight 4:38 AM EDT 9:30 PM EDT
Moon 2:58 AM EDT (5/4) 3:02 PM EDT (5/4)
Length of Visible Light 14h 36m
Length of Day
13h 41m
Waning Crescent, 27% of the Moon is Illuminated
May 4
Waning Crescent
May 9
New
May 18
First Quarter
May 25
Full
May 31
Last Quarter

Hourly Weather History & Observations

Time (EDT) Temp. Dew Point Humidity Pressure Visibility Wind Dir Wind Speed Gust Speed Precip Events Conditions
12:04 AM 57.2 °F 46.4 °F 67% 30.17 in 10.0 mi NE 17.3 mph - N/A   Overcast
12:54 AM 55.9 °F 48.0 °F 75% 30.15 in 10.0 mi NE 19.6 mph 23.0 mph N/A   Overcast
1:54 AM 55.9 °F 48.9 °F 77% 30.12 in 10.0 mi NNE 12.7 mph - N/A   Overcast
2:54 AM 55.0 °F 51.1 °F 86% 30.11 in 5.0 mi NE 17.3 mph - 0.00 in Rain Light Rain
3:20 AM 55.4 °F 51.8 °F 88% 30.12 in 2.5 mi NNE 13.8 mph - 0.01 in Rain Light Rain
3:34 AM 53.6 °F 51.8 °F 94% 30.11 in 3.0 mi NNE 12.7 mph - 0.02 in Rain Light Rain
3:50 AM 53.6 °F 51.8 °F 94% 30.11 in 2.5 mi NNE 10.4 mph - 0.03 in Rain Light Rain
3:54 AM 54.0 °F 51.1 °F 90% 30.10 in 2.0 mi NNE 12.7 mph - 0.03 in Rain Light Rain
4:18 AM 53.6 °F 51.8 °F 94% 30.11 in 3.0 mi NNE 13.8 mph - 0.01 in Rain Light Rain
4:48 AM 53.6 °F 51.8 °F 94% 30.11 in 2.5 mi NNE 15.0 mph - 0.02 in Rain Light Rain
4:54 AM 54.0 °F 51.1 °F 90% 30.10 in 3.0 mi NNE 12.7 mph 19.6 mph 0.02 in Rain Light Rain
5:07 AM 53.6 °F 51.8 °F 94% 30.11 in 2.5 mi NE 13.8 mph - 0.00 in   Overcast
5:20 AM 53.6 °F 51.8 °F 94% 30.11 in 5.0 mi NE 15.0 mph 24.2 mph 0.01 in Rain Light Rain
5:32 AM 53.6 °F 51.8 °F 94% 30.11 in 2.0 mi NE 16.1 mph 24.2 mph 0.02 in Rain Light Rain
5:54 AM 54.0 °F 52.0 °F 93% 30.11 in 3.0 mi NE 15.0 mph - 0.03 in Rain Light Rain
6:01 AM 53.6 °F 51.8 °F 94% 30.11 in 4.0 mi NE 16.1 mph - 0.01 in Rain Light Rain
6:10 AM 53.6 °F 51.8 °F 94% 30.11 in 3.0 mi NNE 15.0 mph - 0.01 in Rain Light Rain
6:23 AM 53.6 °F 51.8 °F 94% 30.12 in 4.0 mi NE 13.8 mph - 0.01 in Rain Light Rain
6:38 AM 53.6 °F 51.8 °F 94% 30.12 in 1.8 mi NE 13.8 mph - 0.02 in Rain Light Rain
6:45 AM 53.6 °F 51.8 °F 94% 30.12 in 3.0 mi NE 13.8 mph - 0.02 in Rain Light Rain
6:54 AM 55.0 °F 51.1 °F 86% 30.12 in 3.0 mi NE 11.5 mph - 0.02 in Rain Light Rain
7:43 AM 55.4 °F 51.8 °F 88% 30.13 in 10.0 mi NE 9.2 mph - 0.01 in   Overcast
7:54 AM 55.9 °F 52.0 °F 87% 30.12 in 10.0 mi NNE 11.5 mph - 0.01 in   Overcast
8:54 AM 57.9 °F 52.0 °F 81% 30.12 in 10.0 mi NE 11.5 mph 21.9 mph N/A   Overcast
9:54 AM 60.1 °F 51.1 °F 72% 30.11 in 10.0 mi NE 17.3 mph 27.6 mph N/A   Mostly Cloudy
10:54 AM 62.1 °F 52.0 °F 70% 30.12 in 10.0 mi NE 15.0 mph 23.0 mph N/A   Overcast
11:54 AM 64.0 °F 52.0 °F 65% 30.12 in 10.0 mi ENE 19.6 mph 27.6 mph N/A   Mostly Cloudy
12:47 PM 66.2 °F 51.8 °F 60% 30.11 in 10.0 mi ENE 16.1 mph 23.0 mph N/A   Overcast
12:54 PM 64.9 °F 52.0 °F 63% 30.10 in 10.0 mi NE 18.4 mph 24.2 mph N/A   Overcast
1:54 PM 66.0 °F 53.1 °F 63% 30.09 in 10.0 mi ENE 15.0 mph 24.2 mph N/A   Overcast
2:54 PM 63.0 °F 53.1 °F 70% 30.09 in 10.0 mi NE 17.3 mph - N/A   Overcast
3:01 PM 62.6 °F 55.4 °F 77% 30.09 in 4.0 mi NE 19.6 mph 24.2 mph 0.00 in   Light Drizzle
3:30 PM 60.8 °F 55.4 °F 82% 30.08 in 4.0 mi NE 20.7 mph 25.3 mph 0.00 in   Overcast
3:37 PM 62.6 °F 55.4 °F 77% 30.08 in 4.0 mi NE 16.1 mph 25.3 mph 0.00 in   Overcast
3:52 PM 60.8 °F 55.4 °F 82% 30.08 in 2.5 mi NE 18.4 mph 24.2 mph 0.00 in   Overcast
3:54 PM 61.0 °F 55.9 °F 83% 30.07 in 2.0 mi NE 18.4 mph - 0.00 in Rain Light Rain
4:05 PM 60.8 °F 55.4 °F 82% 30.08 in 2.5 mi NE 16.1 mph - 0.00 in   Overcast
4:19 PM 60.8 °F 55.4 °F 82% 30.08 in 3.0 mi NE 12.7 mph - 0.00 in   Overcast
4:25 PM 60.8 °F 55.4 °F 82% 30.08 in 1.5 mi ENE 12.7 mph 19.6 mph 0.00 in Rain Light Rain
4:41 PM 60.8 °F 57.2 °F 88% 30.08 in 1.5 mi NE 11.5 mph - 0.01 in Rain Light Rain
4:54 PM 59.0 °F 55.9 °F 90% 30.07 in 1.5 mi ENE 10.4 mph - 0.01 in Rain Light Rain
5:07 PM 59.0 °F 55.4 °F 88% 30.07 in 1.5 mi NE 10.4 mph - 0.00 in Rain Light Rain
5:16 PM 60.8 °F 55.4 °F 82% 30.07 in 1.5 mi NE 13.8 mph 19.6 mph 0.00 in   Overcast
5:33 PM 59.0 °F 57.2 °F 94% 30.08 in 1.2 mi NE 12.7 mph - 0.02 in Rain Light Rain
5:41 PM 59.0 °F 55.4 °F 88% 30.08 in 1.0 mi ENE 15.0 mph 21.9 mph 0.03 in Rain Light Rain
5:54 PM 59.0 °F 55.9 °F 90% 30.06 in 1.5 mi ENE 16.1 mph - 0.04 in Rain Light Rain
5:56 PM 59.0 °F 55.4 °F 88% 30.07 in 1.5 mi NE 12.7 mph - 0.00 in Rain Light Rain
6:05 PM 59.0 °F 55.4 °F 88% 30.07 in 1.5 mi ENE 15.0 mph - 0.00 in Rain Light Rain
6:15 PM 59.0 °F 55.4 °F 88% 30.07 in 1.5 mi NE 17.3 mph 23.0 mph 0.00 in Rain Light Rain
6:27 PM 59.0 °F 55.4 °F 88% 30.06 in 1.5 mi NE 16.1 mph - 0.00 in   Overcast
6:36 PM 59.0 °F 55.4 °F 88% 30.06 in 1.5 mi NE 12.7 mph - 0.01 in   Overcast
6:50 PM 59.0 °F 55.4 °F 88% 30.07 in 3.0 mi NE 15.0 mph - 0.01 in   Overcast
6:54 PM 59.0 °F 55.0 °F 87% 30.06 in 3.0 mi NE 10.4 mph - 0.01 in   Overcast
7:09 PM 59.0 °F 55.4 °F 88% 30.07 in 3.0 mi NE 12.7 mph - N/A   Overcast
7:16 PM 59.0 °F 53.6 °F 82% 30.07 in 3.0 mi NE 16.1 mph 21.9 mph N/A   Overcast
7:23 PM 59.0 °F 53.6 °F 82% 30.07 in 3.0 mi NE 12.7 mph 21.9 mph N/A   Overcast
7:54 PM 59.0 °F 54.0 °F 83% 30.06 in 6.0 mi NE 13.8 mph - N/A   Overcast
8:54 PM 57.9 °F 52.0 °F 81% 30.07 in 10.0 mi NE 15.0 mph - N/A   Overcast
9:01 PM 57.2 °F 51.8 °F 82% 30.08 in 10.0 mi NE 12.7 mph - N/A   Mostly Cloudy
9:54 PM 57.9 °F 52.0 °F 81% 30.09 in 9.0 mi NE 17.3 mph 24.2 mph N/A   Overcast
10:54 PM 57.0 °F 52.0 °F 83% 30.08 in 10.0 mi NE 12.7 mph - 0.00 in   Overcast
11:54 PM 57.0 °F 52.0 °F 83% 30.07 in 10.0 mi NE 11.5 mph - N/A   Overcast